This is the latest recevied weather packets stored in our database for station/object 5B4ALR-13. If no packets are shown the sender has not sent any weather packets the latest 10 day(s).
| Time | Temp. | Humidity | Pressure | Rain* | Wind** | Luminosity | Snow |
|---|---|---|---|---|---|---|---|
| 1777641063 | 25.56° C | 38% | 1011.4 hPa | 0 mm | - | - | - |
| 1777640463 | 25.56° C | 41% | 1011.5 hPa | 0 mm | - | - | - |
| 1777639863 | 25° C | 47% | 1011.6 hPa | 0 mm | - | - | - |
| 1777639263 | 25° C | 47% | 1011.7 hPa | 0 mm | - | - | - |
| 1777638663 | 25.56° C | 45% | 1011.6 hPa | 0 mm | - | - | - |
| 1777638063 | 25.56° C | 45% | 1011.8 hPa | 0 mm | - | - | - |
| 1777637464 | 25.56° C | 42% | 1011.9 hPa | 0 mm | - | - | - |
| 1777636863 | 25.56° C | 37% | 1012 hPa | 0 mm | - | - | - |
| 1777636263 | 25.56° C | 41% | 1012 hPa | 0 mm | - | - | - |
| 1777635663 | 25° C | 46% | 1012.4 hPa | 0 mm | - | - | - |
| 1777635064 | 25.56° C | 45% | 1012.6 hPa | 0 mm | - | - | - |
| 1777634463 | 25° C | 47% | 1012.7 hPa | 0 mm | - | - | - |
| 1777633864 | 25° C | 50% | 1012.7 hPa | 0 mm | - | - | - |
| 1777633263 | 25° C | 51% | 1012.7 hPa | 0 mm | - | - | - |
| 1777632663 | 25° C | 55% | 1012.8 hPa | 0 mm | - | - | - |
| 1777632063 | 24.44° C | 56% | 1012.7 hPa | 0 mm | - | - | - |
| 1777631463 | 23.89° C | 58% | 1012.8 hPa | 0 mm | - | - | - |
| 1777630863 | 24.44° C | 59% | 1012.9 hPa | 0 mm | - | - | - |
| 1777630263 | 25° C | 59% | 1012.9 hPa | 0 mm | - | - | - |
| 1777629663 | 25° C | 59% | 1013 hPa | 0 mm | - | - | - |
| 1777629063 | 25° C | 59% | 1013.2 hPa | 0 mm | - | - | - |
| 1777628463 | 23.33° C | 61% | 1013.2 hPa | 0 mm | - | - | - |
| 1777627863 | 22.78° C | 63% | 1013.2 hPa | 0 mm | - | - | - |
| 1777627263 | 22.78° C | 62% | 1013.2 hPa | 0 mm | - | - | - |
| 1777626663 | 22.78° C | 63% | 1013.3 hPa | 0 mm | - | - | - |
* Rain latest hour (hover to see other rain measurements)
** Current wind speed in m/s (hover to see current wind gust speed)